Kapolei, HI

7:34 PM HST on February 27, 2017 (GMT -1000)
Kalaeloa (John Rodgers Field)

Weather History for PHJR - August, 2014

Change the Weather History Date:

Friday, August 15, 2014

  Actual Average (PHNL) Record (PHNL)
Temperature  
Mean Temperature 80 °F -  
Max Temperature 89 °F 89 °F 92 °F (2005)
Min Temperature 71 °F 74 °F 1 °F (2016)
Cooling Degree Days 15    
Growing Degree Days 30 (Base 50)    
Moisture  
Dew Point 65 °F    
Average Humidity 62    
Maximum Humidity 81    
Minimum Humidity 43    
Precipitation  
Precipitation 0.00 in - - ()
Sea Level Pressure  
Sea Level Pressure 30.00 in    
Wind  
Wind Speed 3 mph (ENE)    
Max Wind Speed 12 mph    
Max Gust Speed 21 mph    
Visibility 10 miles    
Events      
Averages and records for this station are not official NWS values.
T = Trace of Precipitation, MM = Missing Value Source: NWS Daily Summary

Daily Weather History Graph

Daily Weather History Graph

Search for Another Location

Airport or City:

Trip Planner

Search our weather history database for the weather conditions in past years. The results will help you decide how hot, cold, wet, or windy it might be!

Date:

Astronomy

Aug. 15, 2014 Rise Set
Actual Time 6:10 AM HST 7:02 PM HST
Civil Twilight 5:47 AM HST 7:25 PM HST
Nautical Twilight 5:20 AM HST 7:52 PM HST
Astronomical Twilight 4:52 AM HST 8:20 PM HST
Moon 11:03 PM HST (8/15) 11:17 AM HST (8/15)
Length of Visible Light 13h 37m
Length of Day
12h 51m
Waning Gibbous, 67% of the Moon is Illuminated
Aug 15
Waning Gibbous
Aug 17
Last Quarter
Aug 25
New
Sep 2
First Quarter
Sep 8
Full

Hourly Weather History & Observations

Time (HST) Temp. Heat Index Dew Point Humidity Pressure Visibility Wind Dir Wind Speed Gust Speed Precip Events Conditions
12:53 AM 72.0 °F - 64.0 °F 76% 30.01 in 10.0 mi Calm Calm - N/A   Clear
1:53 AM 73.0 °F - 64.0 °F 73% 30.00 in 10.0 mi Calm Calm - N/A   Scattered Clouds
2:53 AM 73.9 °F - 64.9 °F 73% 29.99 in 10.0 mi Calm Calm - N/A   Mostly Cloudy
3:53 AM 71.1 °F - 64.9 °F 81% 29.99 in 10.0 mi Calm Calm - N/A   Clear
4:53 AM 72.0 °F - 64.9 °F 78% 30.00 in 10.0 mi Calm Calm - N/A   Scattered Clouds
5:53 AM 72.0 °F - 64.9 °F 78% 30.00 in 10.0 mi Calm Calm - N/A   Partly Cloudy
6:53 AM 73.0 °F - 66.0 °F 79% 30.01 in 10.0 mi Calm Calm - N/A   Partly Cloudy
7:53 AM 80.1 °F 82.7 °F 68.0 °F 67% 30.02 in 10.0 mi Variable 5.8 mph - N/A   Clear
8:53 AM 82.0 °F 84.1 °F 66.0 °F 58% 30.03 in 10.0 mi Variable 4.6 mph - N/A   Partly Cloudy
9:53 AM 84.9 °F 86.6 °F 64.9 °F 51% 30.03 in 10.0 mi ENE 8.1 mph - N/A   Mostly Cloudy
10:53 AM 86.0 °F 87.3 °F 64.0 °F 48% 30.02 in 10.0 mi Variable 5.8 mph - N/A   Mostly Cloudy
11:53 AM 84.9 °F 86.6 °F 64.9 °F 51% 30.01 in 10.0 mi Variable 6.9 mph - N/A   Mostly Cloudy
12:53 PM 84.9 °F 86.1 °F 64.0 °F 49% 29.99 in 10.0 mi East 10.4 mph 18.4 mph N/A   Mostly Cloudy
1:53 PM 86.0 °F 87.3 °F 64.0 °F 48% 29.99 in 10.0 mi ENE 9.2 mph 16.1 mph N/A   Mostly Cloudy
2:53 PM 89.1 °F 90.3 °F 64.0 °F 43% 29.98 in 10.0 mi ENE 8.1 mph - N/A   Clear
3:53 PM 88.0 °F 89.3 °F 64.0 °F 45% 29.97 in 10.0 mi ENE 11.5 mph 20.7 mph N/A   Scattered Clouds
4:53 PM 86.0 °F 87.3 °F 64.0 °F 48% 29.97 in 10.0 mi East 10.4 mph - N/A   Clear
5:53 PM 82.0 °F 83.4 °F 64.0 °F 54% 29.98 in 10.0 mi Variable 4.6 mph - N/A   Clear
6:53 PM 80.1 °F 81.7 °F 64.0 °F 58% 29.99 in 10.0 mi Variable 6.9 mph - N/A   Clear
7:53 PM 78.1 °F - 64.0 °F 62% 30.01 in 10.0 mi ENE 4.6 mph - N/A   Clear
8:53 PM 77.0 °F - 64.9 °F 66% 30.02 in 10.0 mi ENE 3.5 mph - N/A   Clear
9:53 PM 77.0 °F - 64.9 °F 66% 30.03 in 10.0 mi Variable 3.5 mph - N/A   Clear
10:53 PM 78.1 °F - 64.9 °F 64% 30.04 in 10.0 mi East 5.8 mph - N/A   Clear
11:53 PM 75.9 °F - 66.0 °F 71% 30.03 in 10.0 mi ENE 3.5 mph - N/A   Partly Cloudy